sat.trackr.live / text

‹ back to catalog

YAOGAN-43 03A

NORAD 61617 · 2024-190A

PAYLOAD ACTIVE UNKNOWN

§ Identity

Operator
Country
PRC
Launch date
2024-10-23
Launch site
XICLF
Launch vehicle
Mass (kg)
RCS (m²)

External: N2YO · Heavens-Above · Gunter

§ Orbital elements

Epoch: 2026-09-22T12:34:12.691200Z

Period
94.55 min
Inclination
34.9915°
Eccentricity
0.0004282
Mean motion
15.22934390 rev/d
Perigee alt
494.1 km
Apogee alt
499.9 km
Semi-major
6,875.1 km
B*
1.6080e-4
RAAN
305.5156°
Arg perigee
149.0547°
Mean anomaly
211.0420°
Rev number
10,671

§ Raw data

YAOGAN-43 03A1 61617U 24190A   26265.52375800  .00003832  00000+0  16080-3 0  99912 61617  34.9915 305.5156 0004282 149.0547 211.0420 15.22934390106718

JSON: /api/v1/satellites/61617 · /tle

For live sub-satellite position, see the globe view (requires WebGL).

§ Visibility from observer

Set your observer location to see the next 7 days of passes ≥ 10°. The values pass through the URL so the page stays shareable.

No JS? Fill the form by hand. The geolocation button needs JavaScript.